Ciudad Victoria, Mexico

2:02 AM CST on February 18, 2018 (GMT -0600)
Ciudad Victoria

Weather History for MMCV - October, 2012

Change the Weather History Date:

Sunday, October 28, 2012

  Actual Average Record
Temperature  
Mean Temperature 64 °F -  
Max Temperature 71 °F 79 °F 93 °F (1996)
Min Temperature 57 °F 58 °F 51 °F (2003)
Degree Days  
Heating Degree Days 1    
Growing Degree Days 14 (Base 50)    
Moisture  
Dew Point 46 °F    
Average Humidity 49    
Maximum Humidity 80    
Minimum Humidity 33    
Precipitation  
Precipitation 0.00 in - - ()
Sea Level Pressure  
Sea Level Pressure 30.19 in    
Wind  
Wind Speed 5 mph ()    
Max Wind Speed 14 mph    
Max Gust Speed -    
Visibility 5.0 miles    
Events      
Averages and records for this station are not official NWS values.
T = Trace of Precipitation, MM = Missing Value Source: Averaged Metar Reports

Daily Weather History Graph

Daily Weather History Graph

Search for Another Location

Airport or City:

Trip Planner

Search our weather history database for the weather conditions in past years. The results will help you decide how hot, cold, wet, or windy it might be!

Date:

Astronomy

Oct. 28, 2012 Rise Set
Actual Time 6:39 AM CST 5:59 PM CST
Civil Twilight 6:16 AM CST 6:22 PM CST
Nautical Twilight 5:49 AM CST 6:48 PM CST
Astronomical Twilight 5:23 AM CST 7:15 PM CST
Moon 5:17 PM CST (10/28) 5:37 AM CST (10/28)
Length of Visible Light 12h 05m
Length of Day
11h 19m
Waxing Gibbous, 99% of the Moon is Illuminated
Oct 28
Waxing Gibbous
Oct 29
Full
Nov 6
Last Quarter
Nov 13
New
Nov 20
First Quarter

Hourly Weather History & Observations

Time (CST) Temp. Dew Point Humidity Pressure Visibility Wind Dir Wind Speed Gust Speed Precip Events Conditions
12:43 AM 57.2 °F 50.0 °F 77% 30.20 in 5.0 mi NW 4.6 mph - N/A   Mostly Cloudy
12:50 AM 59 °F 54 °F 80% 30.22 in 4 mi NW 2.2 mph - -   Mostly Cloudy
5:50 AM 60 °F 46 °F 49% 30.22 in 4 mi NNW 6.7 mph - -   Mostly Cloudy
6:06 AM 57.2 °F 44.6 °F 63% 30.20 in 5.0 mi NNW 4.6 mph - N/A   Mostly Cloudy
6:41 AM 57.2 °F 44.6 °F 63% 30.20 in 5.0 mi NW 5.8 mph - N/A   Overcast
7:41 AM 59.0 °F 42.8 °F 55% 30.22 in 5.0 mi NW 4.6 mph - N/A   Overcast
8:45 AM 60.8 °F 41.0 °F 48% 30.16 in 5.0 mi NW 5.8 mph - N/A   Overcast
8:50 AM 61 °F 48 °F 53% 30.29 in 6 mi North 4.5 mph - -   Overcast
9:49 AM 66.2 °F 39.2 °F 37% 30.23 in 5.0 mi WNW 11.5 mph - N/A   Overcast
10:44 AM 69.8 °F 39.2 °F 33% 30.22 in 5.0 mi NW 8.1 mph - N/A   Mostly Cloudy
11:46 AM 68.0 °F 39.2 °F 35% 30.23 in 5.0 mi North 13.8 mph - N/A   Overcast
12:40 PM 69.8 °F 41.0 °F 35% 30.18 in 5.0 mi NNW 6.9 mph - N/A   Overcast
1:47 PM 69.8 °F 41.0 °F 35% 30.15 in 5.0 mi North 9.2 mph - N/A   Overcast
2:48 PM 69.8 °F 41.0 °F 35% 30.17 in 5.0 mi North 6.9 mph - N/A   Overcast
2:50 PM 70 °F 48 °F 35% 30.18 in 6 mi North 6.7 mph - -   Overcast
3:54 PM 71.6 °F 42.8 °F 35% 30.12 in 5.0 mi NNE 5.8 mph - N/A   Overcast
4:46 PM 71.6 °F 42.8 °F 35% 30.12 in 5.0 mi NNE 5.8 mph - N/A   Overcast
5:45 PM 68.0 °F 50.0 °F 52% 30.17 in 5.0 mi East 5.8 mph - N/A   Overcast
5:50 PM 68 °F 47 °F 36% 30.19 in 6 mi North 2.2 mph - -   Overcast
6:44 PM 66.2 °F 50.0 °F 56% 30.17 in 5.0 mi East 4.6 mph - N/A   Mostly Cloudy
7:41 PM 64.4 °F 50.0 °F 59% 30.19 in 5.0 mi East 3.5 mph - N/A   Mostly Cloudy
8:44 PM 64.4 °F 50.0 °F 59% 30.21 in 5.0 mi SE 3.5 mph - N/A   Mostly Cloudy
8:45 PM 65 °F 55 °F 63% 30.23 in 4 mi SSE 2.2 mph - -   Mostly Cloudy